Regional Weather Roundup
Issued by NWS

Home | Current Version | Previous Version | Graphics & Text | Print | Product List | Glossary On
Versions: 1 2 3 4 5 6 7 8 9 10 11 12 13 14 15 16 17 18 19 20 21 22 23 24 25 26 27 28 29 30 31 32 33 34 35 36 37 38 39 40 41 42 43 44 45 46 47 48 49 50
000
ASUS43 KBIS 280001
RWRND

NORTH DAKOTA REGIONAL WEATHER ROUNDUP
NATIONAL WEATHER SERVICE BISMARCK ND
700 PM CDT FRI MAR 27 2015

NOTE: "FAIR" INDICATES FEW OR NO CLOUDS BELOW 12,000 FEET WITH NO
SIGNIFICANT WEATHER AND/OR OBSTRUCTIONS TO VISIBILITY.


NDZ001>003-009>011-017-280100-
NORTHWEST NORTH DAKOTA

CITY           SKY/WX    TMP DP  RH WIND       PRES   REMARKS
WILLISTON      MOSUNNY   60  37  42 N12       29.88F
6HR MIN TEMP:  55; 6HR MAX TEMP:  64;

MINOT          PTSUNNY   45  35  68 NE12      29.90R
MINOT AFB      PTSUNNY   43  40  87 NE12      29.90R
$$

NDZ018>021-031>035-040>046-280100-
SOUTHWEST NORTH DAKOTA

CITY           SKY/WX    TMP DP  RH WIND       PRES   REMARKS
BISMARCK       MOSUNNY   50  34  54 E6        29.90R
6HR MIN TEMP:  33; 6HR MAX TEMP:  51;

DICKINSON      SUNNY     60  34  37 N15       29.88R
GARRISON         N/A     52  38  58 N15       29.89R
6HR MIN TEMP:  40; 6HR MAX TEMP:  57;

HETTINGER ARPT SUNNY     63  34  33 N15G22    29.89S
$$

NDZ004>008-012>016-024-026-027-054-280100-
NORTHEAST NORTH DAKOTA

CITY           SKY/WX    TMP DP  RH WIND       PRES   REMARKS
GRAND FORKS    CLOUDY    33  20  58 S15       30.08S
GRND FRKS AFB  LGT SNOW  32  27  80 S10       30.06F FOG
DEVILS LAKE    CLOUDY    28  25  86 SE14      29.99R WCI  17
$$

NDZ022-023-025-028>030-036>039-047>053-280100-
SOUTHEAST NORTH DAKOTA

CITY           SKY/WX    TMP DP  RH WIND       PRES   REMARKS
FARGO          LGT SNOW  31  24  75 S7        30.10R
6HR MIN TEMP:  31; 6HR MAX TEMP:  38; 6HR PCP: TRACE;

JAMESTOWN      FRZ RAIN  29  26  89 SE15      29.99R FOG     WCI  18
$$



USA.gov is the U.S. government's official web portal to all federal, state and local government web resources and services.